SCP
0 0 0 0 0 0 0 0 0 0 0 0 0 0 0 0 1 1 1 1 1 1 2 2 2 2 2 2 2 2 2 2 2 2 2 2 1 1 1 1 1 1 1 1
0 0 0 0 0 0 0 0 0 0 0 1 1 1 1 1 1 1 1 1 1 2 2 2 2 2 2 2 2 2 2 2 2 2 2 2 1 1 1 1 1 1 1 1
0 0 0 0 0 0 0 0 0 0 1 1 1 1 1 1 1 1 1 1 1 2 2 3 3 3 2 2 2 2 2 2 2 2 2 2 2 1 1 1 1 1 1 1
0 0 0 0 0 0 0 0 0 1 1 1 1 1 1 1 1 1 1 1 1 2 2 2 3 2 2 2 2 3 3 3 3 2 2 2 2 2 2 2 2 1 1 1
0 0 0 0 0 0 0 1 1 1 1 1 1 1 1 1 1 1 1 1 1 2 2 2 2 2 2 2 2 3 3 3 3 3 2 2 2 2 2 2 2 2 1 1
0 0 0 0 0 0 0 1 1 1 1 1 1 1 1 1 1 1 1 1 1 2 2 2 3 3 3 2 2 2 3 3 3 3 2 2 2 2 2 2 2 2 1 1
0 0 0 0 0 0 0 1 1 1 1 1 1 1 1 1 1 1 1 1 1 2 2 2 3 3 3 2 2 2 2 2 2 2 2 2 2 2 2 2 2 1 1 1
0 0 0 0 0 0 1 1 1 1 1 1 1 1 1 1 1 1 1 1 1 2 2 2 2 3 2 2 2 2 2 2 2 2 2 1 2 2 2 1 1 1 1 1
0 0 0 0 0 0 0 1 1 1 1 1 1 1 1 1 1 1 1 1 1 1 1 2 2 2 2 2 2 2 2 2 2 2 1 1 1 1 1 1 1 1 1 1
0 0 0 0 0 0 0 0 0 0 1 1 1 1 0 0 0 0 1 1 1 1 1 1 1 1 1 1 1 1 1 1 1 1 1 1 1 1 1 1 1 0 0 0
0 0 0 0 0 0 0 0 0 0 0 0 0 0 0 0 0 0 0 0 0 0 0 0 1 1 1 1 1 1 1 1 1 1 1 1 1 0 0 0 0 0 0 0
0 0 0 0 0 0 0 0 0 0 0 0 0 0 0 0 0 0 0 0 0 0 0 0 0 0 0 0 1 1 1 0 0 0 0 0 0 0 0 0 0 0 0 0
0 0 0 0 0 0 0 0 0 0 0 0 0 0 0 0 0 0 0 0 0 0 0 0 0 0 0 0 0 0 0 0 0 0 0 0 0 0 0 0 0 0 0 0
0 0 0 0 0 0 0 0 0 0 0 0 0 0 0 0 0 0 0 0 0 0 0 0 0 0 0 0 0 0 0 0 0 0 0 0 0 0 0 0 0 0 0 0
0 0 0 0 0 0 0 0 0 0 0 0 0 0 0 0 0 0 0 0 0 0 0 0 0 0 0 0 0 0 0 0 0 0 0 0 0 0 0 0 0 0 0 0
0 0 0 0 0 0 0 0 0 0 0 0 0 0 0 0 0 0 0 0 0 0 0 0 0 0 0 0 0 0 0 0 0 0 0 0 0 0 0 0 0 0 0 0
0 0 0 0 0 0 0 0 0 0 0 0 0 0 0 0 0 0 0 0 0 0 0 0 0 0 0 0 0 0 0 0 0 0 0 0 0 0 0 0 0 0 0 0
0 0 0 0 0 0 0 0 0 0 0 0 0 0 0 0 0 0 0 0 0 0 0 0 0 0 0 0 0 0 0 0 0 0 0 0 0 0 0 0 0 0 0 0
0 0 0 0 0 0 0 0 0 0 0 0 0 0 0 0 0 0 0 0 0 0 0 0 0 0 0 0 0 0 0 0 0 0 0 0 0 0 0 0 0 0 0 0
0 0 0 0 0 0 0 0 0 0 0 0 0 0 0 0 0 0 0 0 0 0 0 0 0 0 0 0 0 0 0 0 0 0 0 0 0 0 0 0 0 0 0 0
0 0 0 0 0 0 0 0 0 0 0 0 0 0 0 0 0 0 0 0 0 0 0 0 0 0 0 0 0 0 0 0 0 0 0 0 0 0 0 0 0 0 0 0
0 0 0 0 0 0 0 0 0 0 0 0 0 0 0 0 0 0 0 0 0 0 0 0 0 0 0 0 0 0 0 0 0 0 0 0 0 0 0 0 0 0 0 0
0 0 0 0 0 0 0 0 0 0 0 0 0 0 0 0 0 0 0 0 0 0 0 0 0 0 0 0 0 0 0 0 0 0 0 0 0 0 0 0 0 0 0 0
0 0 0 0 0 0 0 0 0 0 0 0 0 0 0 0 0 0 0 0 0 0 0 0 0 0 0 0 0 0 0 0 0 0 0 0 0 0 0 0 0 0 0 0
0 0 0 0 0 0 0 0 0 0 0 0 0 0 0 0 0 0 0 0 0 0 0 0 0 0 0 0 0 0 0 0 0 0 0 0 0 0 0 0 0 0 0 0
0 0 0 0 0 0 0 0 0 0 0 0 0 0 0 0 0 0 0 0 0 0 0 0 0 0 0 0 0 0 0 0 0 0 0 0 0 0 0 0 0 0 0 0
0 0 0 0 0 0 0 0 0 0 0 0 0 0 0 0 0 0 0 0 0 0 0 0 0 0 0 0 0 0 0 0 0 0 0 0 0 0 0 0 0 0 0 0
Wind_Speed
10 7 5 5 10 14 14 13 10 6 2 3 0 1 1 3 5 7 9 10 9 9 9 9 9 9 9 9 9 10 11 11 10 9 8 8 7 7 7 7 9 7 7 7
11 10 8 10 13 13 13 13 10 8 2 5 4 3 3 3 4 5 7 7 8 8 9 9 9 9 9 9 9 9 9 10 10 9 9 9 8 7 7 7 7 7 7 7
11 10 8 11 11 12 11 9 8 5 2 5 6 6 5 4 3 3 5 5 5 6 7 7 7 7 7 7 9 9 9 8 9 10 9 9 10 9 8 8 7 7 7 7
8 7 10 6 6 5 5 3 1 4 4 6 7 7 6 5 4 5 5 4 4 3 5 6 7 7 6 7 7 7 7 7 6 8 8 8 8 8 8 7 7 7 7 7
6 8 7 6 7 6 3 2 5 5 5 5 8 10 10 9 8 7 6 5 4 3 3 4 5 5 5 5 5 6 6 6 6 6 6 7 7 6 6 6 6 6 6 7
7 6 5 3 7 7 2 1 5 7 6 4 4 6 7 8 9 10 9 8 7 5 5 5 4 5 5 4 3 4 4 4 4 4 5 6 6 5 4 4 5 5 6 6
8 6 2 5 8 6 1 2 5 7 8 7 7 9 10 10 10 9 8 9 9 8 7 6 6 6 6 5 4 3 3 3 3 3 2 3 3 2 2 3 4 5 6 6
4 4 1 7 6 5 3 3 4 6 9 11 13 14 12 11 10 10 9 10 10 9 9 9 8 7 7 5 4 4 4 4 3 3 2 1 2 2 2 2 3 4 5 5
3 2 3 5 6 3 3 5 5 7 10 11 13 13 12 11 10 10 10 10 9 9 10 9 9 8 7 5 4 4 4 4 3 3 3 2 1 2 2 2 4 5 4 4
2 3 5 7 8 7 7 6 5 9 10 13 13 13 11 10 9 9 9 9 9 10 9 9 8 8 7 6 5 5 4 2 1 2 1 2 1 2 2 2 2 3 3 3
3 3 5 9 8 7 7 6 8 12 13 12 12 12 11 10 9 9 9 9 9 8 8 8 8 8 7 6 5 5 3 2 1 1 0 1 1 1 1 1 1 2 2 2
2 4 4 4 5 6 7 8 9 12 12 12 12 12 11 10 9 9 9 8 8 8 8 8 8 7 7 6 5 4 3 3 2 2 1 1 1 1 3 4 5 6 6 5
4 5 6 6 6 8 10 10 12 12 12 12 12 11 10 9 8 8 8 8 7 7 7 6 6 6 5 5 5 4 3 2 2 3 3 2 2 2 2 4 7 8 9 9
5 5 6 7 8 10 11 12 13 12 12 12 11 10 10 9 8 8 8 7 6 6 6 5 5 6 5 4 3 3 3 3 2 2 3 3 3 3 3 3 3 3 7 12
7 7 8 9 10 10 10 11 11 11 11 11 10 9 9 8 7 7 6 6 5 5 5 5 5 5 4 4 3 4 4 3 3 3 4 4 4 4 4 4 3 4 3 3
6 8 9 10 10 9 9 10 10 9 9 9 8 8 7 6 6 5 5 5 5 5 5 4 4 4 4 4 4 3 3 5 5 5 5 5 4 4 4 4 4 4 5 4
6 7 8 8 9 8 8 8 8 7 7 7 6 6 5 5 4 4 4 5 4 3 3 3 3 4 4 5 6 6 5 4 5 5 5 4 4 5 5 5 5 5 5 3
8 9 9 8 8 8 7 7 7 7 6 6 5 5 5 4 5 5 5 5 4 3 3 3 3 4 4 4 4 6 6 6 5 5 4 4 5 5 6 6 6 6 5 5
10 10 10 8 7 6 6 5 5 5 4 4 5 4 4 4 4 4 5 5 5 3 3 4 4 4 5 4 6 5 7 7 6 5 5 5 5 5 5 6 6 6 6 6
9 8 8 7 7 6 6 5 5 4 4 5 5 5 5 5 5 5 5 4 4 4 4 4 4 5 4 5 7 7 8 7 7 6 6 6 6 6 6 7 7 7 7 7
9 8 8 6 6 6 6 6 5 5 5 5 5 5 4 4 4 4 4 4 3 4 4 3 3 4 6 7 8 8 8 8 8 7 7 7 7 7 7 7 8 8 7 7
7 7 6 6 6 5 5 5 5 5 4 4 5 5 5 5 5 4 3 2 2 3 4 4 4 5 7 9 8 8 8 8 7 7 7 7 7 7 7 7 7 8 7 7
6 6 6 6 6 6 5 5 5 4 4 5 5 5 5 4 5 5 3 3 3 3 4 4 4 5 8 8 8 8 8 8 8 7 7 6 6 6 7 8 7 7 7 8
5 5 6 6 6 6 6 6 5 4 5 5 4 4 4 3 3 3 3 3 4 4 4 3 2 5 7 6 6 6 6 6 6 7 7 7 7 7 7 7 7 7 8 9
4 5 5 5 5 5 5 5 5 4 5 4 4 4 4 4 4 4 4 4 3 4 4 2 3 5 5 5 6 6 6 6 7 8 7 7 7 7 7 7 7 7 8 8
3 4 4 4 4 4 4 4 5 5 5 5 5 5 5 4 5 4 3 4 5 5 5 4 4 4 4 5 6 6 6 6 6 6 7 7 7 7 7 7 9 8 8 8
3 3 2 3 3 4 5 5 5 5 5 5 6 6 6 5 5 4 5 5 5 5 5 6 5 5 6 5 5 5 6 6 6 6 6 6 6 6 7 8 7 7 7 7
Wind_Direction
249 241 216 222 253 264 269 273 272 272 182 133 167 252 106 127 146 154 157 164 163 162 162 162 163 166 169 174 174 176 173 178 179 180 182 185 187 185 186 190 195 195 201 206
261 239 235 233 237 249 256 262 260 260 222 130 145 129 96 93 121 139 148 159 159 154 154 159 163 167 170 171 170 169 172 178 175 178 184 189 189 189 190 195 200 194 203 208
263 267 259 248 238 240 243 251 251 236 150 107 113 93 91 84 85 121 136 133 143 153 153 157 163 162 167 172 170 171 174 178 174 177 184 191 195 193 196 198 203 205 207 214
272 274 259 266 286 269 257 250 64 89 105 113 107 106 87 73 78 75 88 102 108 136 148 159 163 165 169 174 167 169 171 174 172 177 187 191 197 196 197 197 203 209 213 218
263 255 263 296 324 335 316 75 62 78 78 95 125 109 76 55 54 59 59 67 78 92 119 123 138 147 157 168 164 168 172 171 174 178 182 186 197 201 197 200 208 214 219 222
245 248 243 276 327 316 316 111 66 77 77 77 104 111 92 74 65 53 45 49 55 59 62 71 90 122 131 136 140 158 163 167 173 180 183 185 188 191 192 200 214 221 224 225
248 248 255 349 335 335 314 45 50 82 91 86 82 88 95 83 77 71 61 59 57 55 58 57 66 81 90 89 87 84 93 110 120 135 153 158 159 170 187 212 230 236 241 236
263 251 340 2 21 36 44 22 54 78 88 92 90 91 87 80 74 69 65 64 64 61 58 52 54 71 76 68 67 68 71 76 81 97 128 140 129 157 190 222 247 250 251 253
28 44 48 38 59 61 73 57 52 75 85 97 94 91 88 82 76 69 64 62 63 68 66 59 57 62 66 55 59 71 70 66 65 75 74 81 128 209 213 216 240 254 252 256
88 62 51 49 52 47 54 64 82 88 91 94 96 94 88 83 77 72 67 66 65 65 65 61 58 57 54 45 47 59 68 73 99 115 142 149 174 223 226 227 242 272 285 291
74 67 60 48 50 53 50 55 74 83 88 95 99 96 92 86 79 73 68 63 63 64 65 63 57 51 42 33 33 37 40 32 9 31 139 205 210 221 232 238 218 230 265 292
44 44 63 61 62 82 81 72 76 84 88 87 89 91 88 85 81 77 73 69 66 65 62 60 57 53 43 33 33 31 19 11 352 338 331 276 253 252 223 225 211 212 216 226
65 61 76 73 68 78 79 76 76 75 79 82 83 86 88 86 83 80 76 72 68 63 59 56 51 49 46 38 32 24 4 353 342 335 325 311 299 281 272 247 233 239 240 240
69 78 78 73 73 79 85 86 85 84 82 81 78 76 77 76 74 71 66 62 60 59 56 50 46 40 34 33 30 8 339 338 315 312 312 312 302 288 279 281 272 256 238 234
64 80 89 92 88 86 87 90 90 85 82 80 79 76 74 71 69 65 56 51 45 39 40 38 33 24 11 6 1 346 333 328 331 325 309 302 298 295 298 306 310 307 302 245
83 86 89 90 88 86 86 85 85 82 80 77 73 69 67 66 63 59 50 42 36 30 24 19 10 4 0 354 339 319 303 293 289 295 298 301 305 314 320 322 316 311 306 309
93 90 92 95 90 83 79 78 78 77 78 75 67 61 57 55 48 44 34 33 34 18 6 4 8 358 349 341 328 317 316 310 285 284 296 309 321 323 319 312 309 308 307 318
88 87 88 92 92 91 83 78 72 63 57 58 58 55 43 35 24 22 11 0 352 348 358 35 24 341 327 337 328 317 314 312 309 309 314 322 322 312 306 304 303 304 306 308
87 85 83 81 82 85 83 77 72 61 46 39 35 33 24 23 18 7 360 350 336 335 16 32 6 328 333 3 337 306 302 306 309 313 315 313 302 302 307 310 311 315 319 320
78 81 83 79 72 66 61 53 48 42 31 26 19 13 11 7 358 348 344 334 343 0 6 11 340 324 336 2 339 311 306 309 314 316 314 314 316 318 322 323 323 324 324 322
67 61 57 54 53 49 44 36 26 18 16 13 5 358 354 346 334 326 315 320 6 5 348 345 345 355 6 346 315 309 313 319 321 322 324 325 326 327 328 329 327 326 327 326
52 46 35 28 30 29 24 9 359 359 2 354 343 336 329 320 313 310 319 334 24 16 341 343 4 18 356 328 316 317 319 322 327 329 329 330 330 329 327 326 326 325 324 323
38 28 20 17 11 5 355 346 347 353 348 338 332 328 325 329 323 320 332 7 14 9 337 349 12 358 334 318 319 325 330 333 331 329 328 330 329 327 325 324 325 322 318 319
21 11 6 0 355 343 339 343 344 336 324 315 322 335 335 329 339 350 14 36 20 357 343 15 346 325 311 315 325 329 332 335 334 331 329 329 329 330 330 329 329 328 323 321
3 347 341 347 333 334 339 332 332 337 336 345 353 5 4 0 351 353 359 2 4 331 329 334 283 294 308 332 340 341 341 346 343 334 332 331 331 333 333 331 331 326 319 317
340 326 344 326 322 321 327 340 341 342 344 346 347 352 351 349 345 345 344 344 353 340 330 340 349 343 347 352 350 347 343 339 340 342 341 336 336 336 336 337 331 326 322 322
318 320 317 324 350 359 353 349 347 348 353 354 346 341 343 345 347 353 355 357 354 351 356 360 1 0 356 353 355 352 350 353 357 354 347 343 341 339 336 334 331 328 326 325